Weather History for Comanche, TX

Change the Weather History Date:

Sunday, February 17, 2013

  Actual Average (KSEP) Record (KSEP)
Temperature  
Mean Temperature 58 °F -  
Max Temperature 71 °F 58 °F 87 °F (1959)
Min Temperature 44 °F 36 °F 17 °F (1979)
Degree Days  
Heating Degree Days 8    
Growing Degree Days 8 (Base 50)    
Moisture  
Dew Point 30 °F    
Average Humidity 39    
Maximum Humidity 72    
Minimum Humidity 17    
Precipitation  
Precipitation 0.00 in - - ()
Sea Level Pressure  
Sea Level Pressure 30.01 in    
Wind  
Wind Speed 14 mph (SSW)    
Max Wind Speed 23 mph    
Max Gust Speed 34 mph    
Visibility 10 miles    
Events      
Averages and records for this station are not official NWS values.
T = Trace of Precipitation, MM = Missing Value Source: NWS Daily Summary

Daily Weather History Graph

Daily Weather History Graph

Search for Another Location

Airport:

Trip Planner

Search our weather history database for the weather conditions in past years. The results will help you decide how hot, cold, wet, or windy it might be!

Date:

Astronomy

Feb. 17, 2013 Rise Set
Actual Time 7:14 AM CST 6:22 PM CST
Civil Twilight 6:49 AM CST 6:47 PM CST
Nautical Twilight 6:20 AM CST 7:16 PM CST
Astronomical Twilight 5:52 AM CST 7:44 PM CST
Moon 11:36 AM CST (2/17) 12:52 AM CST (2/17)
Length of Visible Light 11h 58m
Length of Day
11h 08m
Waxing Crescent, 49% of the Moon is Illuminated
Feb 17
Waxing Crescent
Feb 17
First Quarter
Feb 25
Full
Mar 4
Last Quarter
Mar 11
New

Hourly Weather History & Observations

Time (CST) Temp. Windchill Dew Point Humidity Pressure Visibility Wind Dir Wind Speed Gust Speed Precip Events Conditions
12:15 AM 44.6 °F 40.2 °F 28.4 °F 53% 30.15 in 10.0 mi South 8.1 mph - N/A   Clear
12:35 AM 44.6 °F 41.4 °F 26.6 °F 49% 30.15 in 10.0 mi SSW 5.8 mph - N/A   Clear
12:55 AM 46.4 °F 42.4 °F 26.6 °F 46% 30.14 in 10.0 mi SSW 8.1 mph - N/A   Clear
1:15 AM 46.4 °F 41.9 °F 26.6 °F 46% 30.14 in 10.0 mi SSW 9.2 mph - N/A   Clear
1:35 AM 46.4 °F 42.4 °F 24.8 °F 43% 30.14 in 10.0 mi SW 8.1 mph - N/A   Clear
1:55 AM 46.4 °F 43.5 °F 26.6 °F 46% 30.14 in 10.0 mi SW 5.8 mph - N/A   Clear
2:15 AM 46.4 °F 40.7 °F 26.6 °F 46% 30.13 in 10.0 mi SW 12.7 mph - N/A   Clear
2:35 AM 46.4 °F 39.8 °F 24.8 °F 43% 30.12 in 10.0 mi SW 16.1 mph - N/A   Clear
2:55 AM 46.4 °F 40.4 °F 24.8 °F 43% 30.11 in 10.0 mi SW 13.8 mph 19.6 mph N/A   Clear
3:15 AM 48.2 °F - 24.8 °F 40% 30.11 in 10.0 mi SW 13.8 mph 23.0 mph N/A   Clear
3:35 AM 46.4 °F 41.1 °F 26.6 °F 46% 30.11 in 10.0 mi SSW 11.5 mph 17.3 mph N/A   Clear
3:55 AM 46.4 °F 40.4 °F 26.6 °F 46% 30.10 in 10.0 mi SW 13.8 mph - N/A   Clear
4:15 AM 46.4 °F 41.1 °F 26.6 °F 46% 30.10 in 10.0 mi SSW 11.5 mph - N/A   Clear
4:35 AM 46.4 °F 40.1 °F 26.6 °F 46% 30.09 in 10.0 mi SSW 15.0 mph 20.7 mph N/A   Clear
4:55 AM 46.4 °F 40.1 °F 26.6 °F 46% 30.09 in 10.0 mi SSW 15.0 mph - N/A   Clear
5:15 AM 46.4 °F 39.8 °F 26.6 °F 46% 30.09 in 10.0 mi SW 16.1 mph 21.9 mph N/A   Clear
5:35 AM 46.4 °F 39.5 °F 26.6 °F 46% 30.09 in 10.0 mi SW 17.3 mph 24.2 mph N/A   Clear
5:55 AM 46.4 °F 39.8 °F 26.6 °F 46% 30.09 in 10.0 mi SW 16.1 mph 23.0 mph N/A   Clear
6:15 AM 46.4 °F 39.8 °F 26.6 °F 46% 30.09 in 10.0 mi SW 16.1 mph - N/A   Clear
6:35 AM 46.4 °F 39.5 °F 26.6 °F 46% 30.09 in 10.0 mi SW 17.3 mph 23.0 mph N/A   Clear
6:55 AM 44.6 °F 37.8 °F 26.6 °F 49% 30.09 in 10.0 mi SW 15.0 mph 20.7 mph N/A   Clear
7:15 AM 44.6 °F 37.4 °F 26.6 °F 49% 30.09 in 10.0 mi SW 16.1 mph 21.9 mph N/A   Clear
7:35 AM 46.4 °F 39.2 °F 26.6 °F 46% 30.09 in 10.0 mi SW 18.4 mph 26.5 mph N/A   Clear
7:55 AM 46.4 °F 39.8 °F 26.6 °F 46% 30.09 in 10.0 mi SW 16.1 mph 24.2 mph N/A   Clear
8:15 AM 48.2 °F - 26.6 °F 43% 30.09 in 10.0 mi SW 16.1 mph 21.9 mph N/A   Clear
8:35 AM 50.0 °F - 26.6 °F 40% 30.09 in 10.0 mi SW 17.3 mph 23.0 mph N/A   Clear
8:55 AM 51.8 °F - 26.6 °F 38% 30.09 in 10.0 mi SW 18.4 mph 29.9 mph N/A   Clear
9:15 AM 53.6 °F - 26.6 °F 35% 30.10 in 10.0 mi SW 21.9 mph 31.1 mph N/A   Clear
9:35 AM 53.6 °F - 26.6 °F 35% 30.09 in 10.0 mi SW 21.9 mph 34.5 mph N/A   Clear
9:55 AM 55.4 °F - 26.6 °F 33% 30.09 in 10.0 mi SW 19.6 mph 33.4 mph N/A   Clear
10:15 AM 55.4 °F - 28.4 °F 36% 30.09 in 10.0 mi SW 20.7 mph 33.4 mph N/A   Clear
10:35 AM 59.0 °F - 28.4 °F 31% 30.08 in 10.0 mi SSW 20.7 mph 27.6 mph N/A   Clear
10:55 AM 60.8 °F - 28.4 °F 29% 30.08 in 10.0 mi SW 15.0 mph 29.9 mph N/A   Clear
11:15 AM 62.6 °F - 30.2 °F 30% 30.07 in 10.0 mi SSW 19.6 mph 25.3 mph N/A   Clear
11:35 AM 64.4 °F - 30.2 °F 28% 30.07 in 10.0 mi SSW 17.3 mph 23.0 mph N/A   Clear
11:55 AM 64.4 °F - 28.4 °F 26% 30.06 in 10.0 mi SSW 17.3 mph 23.0 mph N/A   Clear
12:15 PM 66.2 °F - 28.4 °F 24% 30.05 in 10.0 mi South 15.0 mph 25.3 mph N/A   Clear
12:55 PM 69.8 °F - 26.6 °F 20% 30.02 in 10.0 mi SSW 16.1 mph 23.0 mph N/A   Clear
1:15 PM 69.8 °F - 28.4 °F 21% 30.00 in 10.0 mi South 19.6 mph 25.3 mph N/A   Clear
1:35 PM 69.8 °F - 28.4 °F 21% 29.98 in 10.0 mi SSW 18.4 mph 23.0 mph N/A   Clear
1:55 PM 69.8 °F - 28.4 °F 21% 29.97 in 10.0 mi SSW 13.8 mph 25.3 mph N/A   Clear
2:15 PM 71.6 °F - 26.6 °F 19% 29.95 in 10.0 mi South 20.7 mph 26.5 mph N/A   Clear
2:35 PM 71.6 °F - 24.8 °F 17% 29.94 in 10.0 mi SSW 16.1 mph 27.6 mph N/A   Clear
2:55 PM 71.6 °F - 26.6 °F 19% 29.93 in 10.0 mi South 20.7 mph 28.8 mph N/A   Clear
3:15 PM 71.6 °F - 26.6 °F 19% 29.92 in 10.0 mi South 19.6 mph 25.3 mph N/A   Clear
3:35 PM 71.6 °F - 24.8 °F 17% 29.92 in 10.0 mi South 21.9 mph 29.9 mph N/A   Clear
3:55 PM 69.8 °F - 26.6 °F 20% 29.91 in 10.0 mi South 18.4 mph 24.2 mph N/A   Clear
4:15 PM 69.8 °F - 24.8 °F 18% 29.91 in 10.0 mi South 20.7 mph 27.6 mph N/A   Clear
4:35 PM 68.0 °F - 26.6 °F 21% 29.90 in 10.0 mi South 17.3 mph 29.9 mph N/A   Clear
4:55 PM 69.8 °F - 28.4 °F 21% 29.90 in 10.0 mi South 17.3 mph 26.5 mph N/A   Clear
5:15 PM 68.0 °F - 30.2 °F 24% 29.90 in 10.0 mi South 18.4 mph 27.6 mph N/A   Clear
5:35 PM 64.4 °F - 30.2 °F 28% 29.90 in 10.0 mi South 16.1 mph 25.3 mph N/A   Clear
5:55 PM 66.2 °F - 30.2 °F 26% 29.89 in 10.0 mi South 17.3 mph 28.8 mph N/A   Clear
6:15 PM 64.4 °F - 30.2 °F 28% 29.90 in 10.0 mi South 16.1 mph 25.3 mph N/A   Clear
6:55 PM 62.6 °F - 32.0 °F 32% 29.90 in 10.0 mi South 15.0 mph 18.4 mph N/A   Clear
7:15 PM 60.8 °F - 33.8 °F 36% 29.90 in 10.0 mi South 13.8 mph - N/A   Clear
7:35 PM 60.8 °F - 35.6 °F 39% 29.90 in 10.0 mi South 13.8 mph 20.7 mph N/A   Clear
7:55 PM 59.0 °F - 35.6 °F 42% 29.90 in 10.0 mi South 13.8 mph 19.6 mph N/A   Clear
8:15 PM 59.0 °F - 37.4 °F 45% 29.90 in 10.0 mi South 12.7 mph 19.6 mph N/A   Clear
8:35 PM 59.0 °F - 37.4 °F 45% 29.91 in 10.0 mi South 12.7 mph - N/A   Clear
8:55 PM 59.0 °F - 37.4 °F 45% 29.91 in 10.0 mi South 13.8 mph 20.7 mph N/A   Clear
9:15 PM 59.0 °F - 41.0 °F 51% 29.91 in 10.0 mi South 15.0 mph 21.9 mph N/A   Clear
9:35 PM 59.0 °F - 41.0 °F 51% 29.91 in 10.0 mi South 16.1 mph 25.3 mph N/A   Clear
9:55 PM 57.2 °F - 42.8 °F 59% 29.91 in 10.0 mi South 18.4 mph 27.6 mph N/A   Clear
10:15 PM 55.4 °F - 42.8 °F 63% 29.90 in 10.0 mi South 20.7 mph 27.6 mph N/A   Clear
10:55 PM 55.4 °F - 44.6 °F 67% 29.89 in 10.0 mi South 20.7 mph 29.9 mph N/A   Clear
11:15 PM 55.4 °F - 44.6 °F 67% 29.89 in 10.0 mi South 23.0 mph 31.1 mph N/A   Clear
11:35 PM 55.4 °F - 44.6 °F 67% 29.89 in 10.0 mi South 19.6 mph 27.6 mph N/A   Clear
11:55 PM 53.6 °F - 44.6 °F 72% 29.87 in 10.0 mi South 23.0 mph 28.8 mph N/A   Clear